TimeCST,TemperatureF,Dew PointF,Humidity,Sea Level PressureIn,VisibilityMPH,Wind Direction,Wind SpeedMPH,Gust SpeedMPH,PrecipitationIn,Events,Conditions,WindDirDegrees,DateUTC
12:15 AM,45.7,36.0,69,29.64,10.0,SSE,6.9,-,N/A,,Clear,150,2012-12-03 06:15:00
12:35 AM,41.9,34.0,73,29.63,10.0,East,5.8,-,N/A,,Clear,90,2012-12-03 06:35:00
12:55 AM,42.1,35.4,77,29.62,10.0,SSE,9.2,-,N/A,,Clear,150,2012-12-03 06:55:00
1:15 AM,43.2,36.1,76,29.60,10.0,South,9.2,-,N/A,,Clear,170,2012-12-03 07:15:00
1:35 AM,41.9,35.4,78,29.59,10.0,East,4.6,-,N/A,,Clear,100,2012-12-03 07:35:00
1:55 AM,38.8,34.2,83,29.57,10.0,East,4.6,-,N/A,,Clear,100,2012-12-03 07:55:00
2:15 AM,37.9,33.8,85,29.59,10.0,Calm,Calm,-,N/A,,Clear,0,2012-12-03 08:15:00
2:35 AM,40.1,35.2,83,29.57,10.0,South,6.9,-,N/A,,Clear,180,2012-12-03 08:35:00
2:55 AM,34.0,30.6,87,29.57,10.0,Calm,Calm,-,N/A,,Clear,0,2012-12-03 08:55:00
3:15 AM,33.6,31.5,92,29.59,10.0,North,6.9,-,N/A,,Clear,10,2012-12-03 09:15:00
3:35 AM,32.2,29.8,91,29.59,10.0,North,4.6,-,N/A,,Clear,360,2012-12-03 09:35:00
3:55 AM,31.3,28.8,90,29.59,10.0,West,4.6,-,N/A,,Clear,280,2012-12-03 09:55:00
4:15 AM,32.0,29.7,91,29.59,10.0,Calm,Calm,-,N/A,,Clear,0,2012-12-03 10:15:00
4:35 AM,31.8,29.7,92,29.60,10.0,North,4.6,-,N/A,,Clear,10,2012-12-03 10:35:00
4:55 AM,29.1,27.1,92,29.59,7.0,Calm,Calm,-,N/A,,Clear,0,2012-12-03 10:55:00
5:15 AM,28.2,25.7,90,29.61,10.0,NNW,5.8,-,N/A,,Clear,330,2012-12-03 11:15:00
5:35 AM,30.2,28.6,94,29.62,7.0,NNW,5.8,-,N/A,,Clear,330,2012-12-03 11:35:00
6:15 AM,32.0,30.4,94,29.63,7.0,WNW,3.5,-,N/A,,Clear,300,2012-12-03 12:15:00
6:35 AM,31.5,29.5,92,29.64,7.0,WNW,8.1,-,N/A,,Clear,290,2012-12-03 12:35:00
6:55 AM,31.6,29.3,91,29.66,10.0,West,6.9,-,N/A,,Clear,280,2012-12-03 12:55:00
7:15 AM,31.8,29.5,91,29.68,10.0,WNW,8.1,-,N/A,,Clear,290,2012-12-03 13:15:00
7:35 AM,32.0,29.8,92,29.70,10.0,WNW,8.1,-,N/A,,Clear,300,2012-12-03 13:35:00
7:55 AM,31.6,29.1,90,29.71,7.0,WNW,8.1,-,N/A,,Clear,290,2012-12-03 13:55:00
8:15 AM,32.4,29.8,90,29.73,10.0,WNW,10.4,-,N/A,,Clear,290,2012-12-03 14:15:00
8:35 AM,34.9,31.5,87,29.76,10.0,WNW,10.4,-,N/A,,Clear,290,2012-12-03 14:35:00
8:55 AM,37.9,32.0,79,29.78,10.0,WNW,9.2,-,N/A,,Clear,290,2012-12-03 14:55:00
9:15 AM,39.4,33.3,79,29.80,10.0,WNW,9.2,-,N/A,,Clear,300,2012-12-03 15:15:00
9:35 AM,45.5,36.1,70,29.83,10.0,NW,10.4,-,N/A,,Clear,310,2012-12-03 15:35:00
9:55 AM,54.9,38.7,54,29.84,10.0,North,26.5,34.5,N/A,,Clear,350,2012-12-03 15:55:00
10:15 AM,53.8,38.1,55,29.87,10.0,North,27.6,35.7,N/A,,Clear,350,2012-12-03 16:15:00
10:35 AM,56.5,38.1,50,29.89,10.0,NNW,25.3,33.4,N/A,,Clear,340,2012-12-03 16:35:00
10:55 AM,54.5,37.2,52,29.89,10.0,North,19.6,27.6,N/A,,Clear,350,2012-12-03 16:55:00
11:15 AM,56.3,34.7,44,29.90,10.0,North,23.0,34.5,N/A,,Clear,350,2012-12-03 17:15:00
11:35 AM,56.5,33.3,42,29.90,10.0,North,29.9,35.7,N/A,,Clear,350,2012-12-03 17:35:00
11:55 AM,57.2,33.6,41,29.92,10.0,North,20.7,33.4,N/A,,Clear,350,2012-12-03 17:55:00
12:15 PM,57.4,32.4,39,29.92,10.0,North,20.7,24.2,N/A,,Clear,350,2012-12-03 18:15:00
12:35 PM,57.6,32.0,38,29.92,10.0,North,20.7,27.6,N/A,,Clear,360,2012-12-03 18:35:00
12:55 PM,57.6,31.5,37,29.92,10.0,North,19.6,24.2,N/A,,Clear,360,2012-12-03 18:55:00
1:15 PM,58.1,29.1,33,29.92,10.0,NNW,18.4,26.5,N/A,,Clear,340,2012-12-03 19:15:00
1:35 PM,58.6,25.2,28,29.92,10.0,NNW,21.9,28.8,N/A,,Clear,340,2012-12-03 19:35:00
1:55 PM,59.0,22.1,24,29.93,10.0,North,19.6,29.9,N/A,,Clear,350,2012-12-03 19:55:00
2:15 PM,58.8,21.7,24,29.93,10.0,North,23.0,29.9,N/A,,Clear,350,2012-12-03 20:15:00
2:35 PM,59.0,21.4,23,29.94,10.0,NNW,18.4,-,N/A,,Clear,340,2012-12-03 20:35:00
2:55 PM,58.6,20.3,23,29.96,10.0,NNW,16.1,26.5,N/A,,Clear,340,2012-12-03 20:55:00
3:15 PM,58.3,19.4,22,29.97,10.0,North,18.4,21.9,N/A,,Clear,350,2012-12-03 21:15:00
3:35 PM,57.7,19.2,22,29.98,10.0,North,18.4,21.9,N/A,,Clear,350,2012-12-03 21:35:00
3:55 PM,57.0,18.5,22,29.99,10.0,NNW,16.1,-,N/A,,Clear,330,2012-12-03 21:55:00
4:15 PM,56.1,18.1,23,30.00,10.0,NNW,15.0,-,N/A,,Clear,340,2012-12-03 22:15:00
4:35 PM,54.0,18.3,25,30.01,10.0,North,9.2,-,N/A,,Clear,360,2012-12-03 22:35:00
4:55 PM,50.0,17.8,28,30.02,10.0,North,6.9,-,N/A,,Clear,10,2012-12-03 22:55:00
5:15 PM,48.9,17.6,29,30.04,10.0,North,3.5,-,N/A,,Clear,10,2012-12-03 23:15:00
5:35 PM,45.9,16.7,31,30.05,10.0,North,3.5,-,N/A,,Clear,10,2012-12-03 23:35:00
5:55 PM,40.1,15.3,36,30.06,4.0,North,3.5,-,N/A,,Haze,350,2012-12-03 23:55:00
6:15 PM,41.2,15.4,35,30.06,5.0,NNW,4.6,-,N/A,,Haze,340,2012-12-04 00:15:00
6:35 PM,34.5,13.1,41,30.08,5.0,NW,4.6,-,N/A,,Haze,320,2012-12-04 00:35:00
6:55 PM,33.4,12.9,43,30.08,7.0,WNW,4.6,-,N/A,,Clear,300,2012-12-04 00:55:00
7:15 PM,31.1,13.1,47,30.09,5.0,West,5.8,-,N/A,,Haze,280,2012-12-04 01:15:00
7:35 PM,30.4,13.1,49,30.09,7.0,West,8.1,-,N/A,,Clear,270,2012-12-04 01:35:00
7:55 PM,27.5,12.9,54,30.10,10.0,West,5.8,-,N/A,,Clear,270,2012-12-04 01:55:00
8:15 PM,28.8,14.0,54,30.11,10.0,Calm,Calm,-,N/A,,Clear,0,2012-12-04 02:15:00
8:35 PM,29.7,14.7,54,30.11,10.0,Calm,Calm,-,N/A,,Clear,0,2012-12-04 02:35:00
8:55 PM,27.5,13.8,56,30.12,10.0,Calm,Calm,-,N/A,,Clear,0,2012-12-04 02:55:00
9:15 PM,24.1,12.2,61,30.12,10.0,Calm,Calm,-,N/A,,Clear,0,2012-12-04 03:15:00
9:35 PM,25.5,13.3,60,30.12,7.0,NNW,3.5,-,N/A,,Clear,340,2012-12-04 03:35:00
9:55 PM,23.0,11.8,62,30.13,7.0,NW,6.9,-,N/A,,Clear,310,2012-12-04 03:55:00
10:15 PM,22.6,11.8,63,30.13,10.0,Calm,Calm,-,N/A,,Clear,0,2012-12-04 04:15:00
10:35 PM,25.9,13.6,60,30.13,10.0,NNW,3.5,-,N/A,,Clear,340,2012-12-04 04:35:00
10:55 PM,22.1,11.3,63,30.14,10.0,West,5.8,-,N/A,,Clear,270,2012-12-04 04:55:00
11:15 PM,23.4,12.4,63,30.14,10.0,WNW,6.9,-,N/A,,Clear,300,2012-12-04 05:15:00
11:35 PM,22.3,12.4,66,30.15,10.0,Calm,Calm,-,N/A,,Clear,0,2012-12-04 05:35:00
11:55 PM,24.3,13.1,63,30.15,10.0,WNW,4.6,-,N/A,,Clear,290,2012-12-04 05:55:00